Погода Murska Sobota

Погода Murska Sobota : погода сейчас, прогноз погоды и архив. Всё, что Вы хотите узнать о погоде Murska Sobota!

Поиск расширенной информации на нашем сайте:

Другие новости

Новости СМИ2

Главная страница сайта

Новости сайта

03.07.2017

Напоминаем, что на нашем специализированном сайте Метеоцентр.Азия вы можете получить высокодетализированные автоматические прогнозы погоды по пунктам России, СНГ и мира в авиационном формате (включающие направление и скорость ветра, видимость, явления погоды, количество и форму облачности, нижнюю и верхнюю границу облачности).


Погода Murska Sobota - сегодня

Время (UTC), дата Ветер
(°,м/с) 
Видим.   Явления Облачность Т
(°С)
Тd
(°С)
f(%) Тe
(°С)
Pmin
(гПа)
dP
(гПа)
Po
(мм)
O2
(г/м3)
Тmin Tmax R s Состояние
почвы
00 19.03.19 280 (З) 2{03}  13000 м    10/0 
+3.4 +1.7 89 +3  1023.5  0.4  750  298  +0        сухая 
03 19.03.19 310 (СЗ) 1{01}  5000 м    10/0 
+2.8 +1.6 92 +4  1023.5  750  299  +0        сухая 
06 19.03.19 020 (С) 1{01}  8000 м  дымка  10/0 средняя 
[Ac cast]
+2.7 +1.6 92 +3  1025.1  1.6  751  300  +0.4        сухая 
09 19.03.19 320 (СЗ) 1{02}  40000 м    10/0 
+6 +1.1 71 +7  1026.1  1.2  752  296  +72.7        сухая 
12 19.03.19 040 (СВ) 4{06}  60000 м    10/0 
+8.1 -0.1 56 +7  1025.7  0.2  752  294  -11.6        влажная 
15 19.03.19 050 (СВ) 4{06}  60000 м    9/9 1500 м 
+9.1 -1.9 46 +8  1025.7  752  293  +98.5        сухая 
18 19.03.19 040 (СВ) 2{04}  40000 м    10/0 2000 м 
+7.3 -1.7 53 +7  1028  2.1  754  296  +0  +9.3      сухая 
21 19.03.19 330 (СЗ) 1{02}  30000 м    5/5 1500 м 
+3.7 -1.5 69 +5  1029.9  1.5  755  300  +0        сухая 
00 20.03.19 310 (СЗ) 2{02}  35000 м    8/0 
+2.5 -1.9 73 +2  1031.3  1.3  756  302  +0        сухая 
03 20.03.19 360 (С) 3{04}  50000 м    ясно 
+3.1 -3.7 61 +2  1031.8  0.4  756  302  +0        сухая 
06 20.03.19 340 (С) 2{04}  30000 м    1/1 1000 м 
[Cu med, cong]
+3 -3.5 62 +2  1033.2  1.5  757  302  +18.4        сухая 
09 20.03.19 010 (С) 7{11}  н/о    ясно 
+8.4 -5.2 38 +6  1034  1.2  758  297          влажная 
12 20.03.19 030 (СВ) 5{09}  н/о    8/0 2000 м 
+9.7 -4.9 35 +8  1033.6  0.4  758  295          мокрая 
15 20.03.19 050 (СВ) 3{08}  60000 м    3/0 2000 м 
+9.8 -4.2 37 +9  1033.6  758  295  -30.5        влажная 
18 20.03.19 050 (СВ) 2{04}  40000 м    ясно 
+6.3 -4.7 45 +6  1035.2  1.3  759  299  +0.2  +10.5      сухая 
21 20.03.19 340 (С) 1{01}  40000 м    ясно 
+0.4 -5.1 67 +1  1037  1.3  760  306  +0        сухая 
00 21.03.19 280 (З) 1{02}  27000 м    ясно 
-1.2 -4.5 78 -1  1037.7  0.5  760  308  +0        сухая 
03 21.03.19 260 (З) 1{01}  30000 м    ясно 
-1.8 -4.7 81 -1  1037.1  0.6  760  309  +0        сухая 
06 21.03.19 320 (СЗ) 1{02}  30000 м    ясно 
[]
-1.1 -4.2 79 -1  1037.9  0.8  761  308  +19.1        сухая 
09 21.03.19 240 (ЮЗ) 2{04}  40000 м    ясно 
+8.2 -1.1 52 +8  1037.6  0.5  761  298          влажная 
12 21.03.19 230 (ЮЗ) 3{05}  50000 м    ясно 
+11.3 -1.9 40 +11  1035.5  1.8  759  294          мокрая 
21 21.03.19 290 (З) 1{02}  20000 м    ясно 
+2 -1.6 77 +3  1035.2  0.7  759  304  +0        сухая 
00 22.03.19 350 (С) 1{01}  16000 м    ясно 
-0.1 -3.2 80 +1  1034.9  0.4  758  306  +0        сухая 
03 22.03.19 250 (З) 1{02}  13000 м    ясно 
-1.1 -3.8 82 -1  1034.4  0.6  758  307  +0        сухая 
06 22.03.19 320 (СЗ) 1{02}  20000 м    ясно 
[]
-0.3 -3.1 81 1034.9  0.5  758  306  +20.7        сухая 
Время (UTC), дата Ветер
(°,м/с) 
Видим.   Явления Облачность Т
(°С)
Тd
(°С)
f(%) Тe
(°С)
Pmin
(гПа)
dP
(гПа)
Po
(мм)
O2
(г/м3)
Тmin Tmax R s Состояние
почвы

Для получения пояснительной информации подведите курсор к названию столбца.

ПОГОДА Murska Sobota - архив

Всё, что Вы хотите узнать о погоде Murska Sobota - удобно и подробно!

Выберите нужную дату (начиная с 1 января 2018* года) и нажмите кнопку "Найти".
Будут отображены архивные сводки погоды по пункту Murska Sobota, начиная с указанной даты.


Отображать данные в формате CSV (для использования в таблицах Excel)


Внимание! Наш архив погоды предназначен исключительно для личного некоммерческого использования в познавательных целях. Если Вам необходимы официальные справки о состоянии погоды (для производственных, юридических, коммерческих и т.п. целей), обращайтесь в органы Росгидромета.

*Примечание: данная дата относится к архиву по метеостанциям СССР (Россия, СНГ, Балтия).
Архив по метеостанциям Зарубежной Европы и Азии (кроме Китая) хранится 10 дней, по другим регионам земного шара (Китай, Африка, Америка, Австралия, Океания) - 1 день.

Murska Sobota - район местоположения метеостанции


Название, широта, долгота, высота метеостанции:
Murska Sobota 46.6°ш. 16.2°д. 188 м над ур. моря [Slovenia]

Дополнительная информация

В oтличие oт бoльшинства пoгoдных сайтoв мы публикуем пoдрoбную метеoинфoрмацию в детальнoм прoфессиoнальнoм фoрмате.

Характеристики температуры и влажнoсти вoздуха измеряются на высoте 2 м в тени вдали oт зданий и деревьев.
Скoрoсть ветра измеряется на высoте 10 м (на урoвне рoста челoвека скoрoсть ветра ниже в 1.5-2 раза). Если метеoстанция нахoдится в гoрoде или в лесу, тo скoрoсть ветра занижена на 2-4 м/с пo сравнению с oткрытым местoм. Скoрoсть ветра над акватoриями крупных рек и oзёр, а также на вершинах хoлмoв на 2-5 м/с выше, чем в oбычных услoвиях.
Атмoсфернoе давление в разных тoчках местнoсти мoжет значительнo oтличаться oт давления на метеoстанции, в зависимoсти oт услoвий рельефа (при пoдъёме на 10 м давление пoнижается примернo на 1 мм рт.ст.).